Flag for Germany Weather past 2 weeks in Pfaffenhofen an der Ilm, Bavaria, Germany

Now
63 °F

Scattered clouds.


Feels Like: 63 °F
Forecast: 49 / 70 °F
Wind: 3 mph from South

Location: Ingolstadt Airport

Current Time: Sep 17, 2014 at 11:55:59 AM

Latest Report: Sep 17, 2014 at 11:20 AM


Visibility: N/A

Pressure: 29.98 "Hg

Humidity: 83%

Dew point: 57 °F

Location of Pfaffenhofen an der IlmLocation

Historic Weather in Pfaffenhofen an der Ilm — Graph

°F

Pfaffenhofen an der Ilm temperature yesterday

Maximum temperature yesterday: 64 °F (at 5:20 PM)
Minimum temperature yesterday: 52 °F (at 11:04 PM)
Average temperature yesterday: 57 °F

Past Weeks' High & Low Weather Summary

 TemperatureHumidityPressure
High79 °F (Sep 7, 5:20 PM)100% (Sep 5, 4:20 AM)30.15 "Hg (Sep 5, 4:20 AM)
Low48 °F (Sep 10, 4:20 AM)45% (Sep 7, 5:20 PM)29.89 "Hg (Sep 6, 4:20 PM)
Average61 °F85%30.02 "Hg
* Reported Sep 2 10:20 AM — Sep 17 10:20 AM, Pfaffenhofen an der Ilm, Weather by CustomWeather, © 2014

Note: Actual official high and low records may vary slightly from our data, if they occured in-between our weather recording intervals... More about our weather records

Advertising

Pfaffenhofen an der Ilm weather history for previous 24 hours

 ConditionsComfort  
Time TempWeatherWind HumidityBarometerVisibility
10:20 AM
Sep 17
57 °FPartly sunny.2 mph94%29.98 "Hg4 mi
9:20 AM55 °FFog.3 mph100%29.98 "Hg2 mi
8:20 AM52 °FFog.2 mph100%29.98 "Hg1 mi
7:45 AM52 °FFog.1 mph94%29.98 "Hg1 mi
7:20 AM50 °FFog.No wind94%29.98 "Hg1 mi
6:20 AM48 °FFog.1 mph100%29.98 "Hg0 mi
5:20 AM48 °FFog.1 mph100%29.95 "Hg0 mi
4:20 AM52 °FCool.1 mph94%29.98 "Hg0 mi
3:20 AM52 °FCool.3 mph100%29.98 "Hg0 mi
2:20 AM52 °FCool.2 mph100%29.98 "Hg0 mi
1:20 AM54 °FCool.2 mph94%29.98 "Hg0 mi
12:20 AM52 °FCool.2 mph100%29.98 "Hg0 mi
11:20 PM
Sep 16
52 °FCool.1 mph100%30.01 "Hg0 mi
11:04 PM52 °FFog.1 mph100%30.01 "Hg1 mi
10:20 PM54 °FLight fog.No wind94%30.01 "Hg1 mi
9:20 PM55 °FFog.1 mph94%30.01 "HgN/A
8:20 PM57 °FCool.1 mph94%30.01 "Hg0 mi
7:20 PM59 °FCool.1 mph94%29.98 "Hg4 mi
6:20 PM64 °FPassing clouds.1 mph78%30.01 "HgN/A
5:20 PM64 °FScattered clouds.2 mph78%30.01 "HgN/A
5:00 PM63 °FScattered clouds.5 mph83%30.01 "HgN/A
4:20 PM63 °FPartly sunny.5 mph83%30.01 "HgN/A
3:20 PM63 °FPartly sunny.6 mph83%30.01 "HgN/A
2:20 PM61 °FLow clouds.3 mph88%30.04 "HgN/A
1:20 PM61 °FLow clouds.3 mph88%30.04 "HgN/A
1:00 PM59 °FLow clouds.5 mph94%30.04 "HgN/A
12:20 PM59 °FLow clouds.2 mph94%30.04 "Hg6 mi
11:20 AM59 °FMore clouds than sun.2 mph88%30.04 "Hg5 mi
Weather by CustomWeather, © 2014

See weather overviewHow to use our weather pages